START_TIME,STEP,MOV.,M6,t_acc.,M7,t_acc.,M19,t_acc.,H36,t_acc.
1979-07-12 21:00:27.460 ,0,0,0.,12.0,0.,12.0,0.,12.0,0.,12.0
1979-07-12 21:00:39.460 ,0,0,0.,12.0,0.,12.0,0.,12.0,0.,12.0
1979-07-12 21:00:51.460 ,0,1,1.,12.0,0.,12.0,0.,12.0,0.,12.0
1979-07-12 21:01:03.460 ,0,1,2.,12.0,0.,12.0,0.,12.0,0.,12.0
1979-07-12 21:01:15.460 ,0,0,1.,12.0,0.,12.0,0.,12.0,0.,12.0
1979-07-12 21:01:27.460 ,0,0,0.,12.0,0.,12.0,0.,12.0,0.,12.0
1979-07-12 21:01:39.460 ,1,1,0.,12.0,0.,12.0,0.,12.0,0.,12.0
1979-07-12 21:01:51.460 ,1,1,0.,12.0,0.,12.0,0.,12.0,0.,12.0
1979-07-12 21:02:03.460 ,1,0,1.,12.0,0.,12.0,0.,12.0,0.,12.0
1979-07-12 21:02:15.460 ,1,0,1.,12.0,0.,12.0,0.,12.0,0.,12.0
1979-07-12 21:02:27.460 ,2,1,1.,12.0,0.,12.0,0.,12.0,0.,12.0
1979-07-12 21:02:39.460 ,2,1,1.,12.0,0.,12.0,0.,12.0,0.,12.0
1979-07-12 21:02:51.460 ,2,0,2.,12.0,0.,12.0,0.,12.0,0.,12.0
1979-07-12 21:03:03.460 ,2,0,0.,12.0,0.,12.0,0.,12.0,0.,12.0
1979-07-12 21:03:15.460 ,3,1,0.,12.0,0.,12.0,0.,12.0,1.,12.0
1979-07-12 21:03:27.460 ,3,1,2.,12.0,0.,12.0,0.,12.0,0.,12.0
1979-07-12 21:03:39.460 ,3,0,2.,12.0,0.,12.0,0.,12.0,0.,12.0
1979-07-12 21:03:51.460 ,3,0,2.,12.0,0.,12.0,0.,12.0,0.,12.0
1979-07-12 21:04:03.460 ,4,1,0.,12.0,0.,12.0,0.,12.0,0.,12.0
1979-07-12 21:04:15.460 ,4,1,1.,12.0,0.,12.0,0.,12.0,0.,12.0
1979-07-12 21:04:27.460 ,4,0,1.,12.0,0.,12.0,0.,12.0,0.,12.0
1979-07-12 21:04:39.460 ,4,0,2.,12.0,0.,12.0,0.,12.0,0.,12.0
1979-07-12 21:04:51.460 ,5,1,1.,12.0,0.,12.0,0.,12.0,0.,12.0
1979-07-12 21:05:03.460 ,5,1,2.,12.0,0.,12.0,0.,12.0,1.,12.0
1979-07-12 21:05:15.460 ,5,0,3.,12.0,0.,12.0,0.,12.0,0.,12.0
1979-07-12 21:05:27.460 ,5,0,1.,12.0,0.,12.0,0.,12.0,0.,12.0
1979-07-12 21:05:39.460 ,6,1,2.,12.0,0.,12.0,0.,12.0,1.,12.0
1979-07-12 21:05:51.460 ,6,1,1.,12.0,0.,12.0,0.,12.0,0.,12.0
1979-07-12 21:06:03.460 ,6,0,1.,12.0,0.,12.0,0.,12.0,0.,12.0
1979-07-12 21:06:15.460 ,6,0,0.,12.0,0.,12.0,0.,12.0,0.,12.0
1979-07-12 21:06:27.460 ,7,0,3.,12.0,0.,12.0,0.,12.0,0.,12.0
1979-07-12 21:06:39.460 ,7,0,0.,12.0,0.,12.0,0.,12.0,0.,12.0
1979-07-12 21:06:51.460 ,7,0,0.,12.0,0.,12.0,0.,12.0,0.,12.0
1979-07-12 21:07:03.460 ,7,0,0.,12.0,0.,12.0,0.,12.0,0.,12.0
1979-07-12 21:07:15.460 ,4,1,0.,12.0,0.,12.0,0.,12.0,0.,12.0
1979-07-12 21:07:27.460 ,4,1,0.,12.0,0.,12.0,0.,12.0,0.,12.0
1979-07-12 21:07:39.460 ,0,1,1.,12.0,0.,12.0,0.,12.0,0.,12.0
1979-07-12 21:07:51.460 ,0,1,1.,12.0,0.,12.0,0.,12.0,0.,12.0
1979-07-12 21:08:03.460 ,3,1,2.,12.0,0.,12.0,0.,12.0,0.,12.0
1979-07-12 21:08:15.460 ,3,1,0.,12.0,0.,12.0,0.,12.0,0.,12.0
1979-07-12 21:08:27.460 ,7,1,1.,12.0,0.,12.0,0.,12.0,1.,12.0
1979-07-12 21:08:39.460 ,7,1,1.,12.0,0.,12.0,0.,12.0,0.,12.0
1979-07-12 21:08:51.460 ,4,1,0.,12.0,0.,12.0,0.,12.0,0.,12.0
1979-07-12 21:09:03.460 ,4,1,0.,12.0,0.,12.0,0.,12.0,0.,12.0
1979-07-12 21:09:15.460 ,0,1,0.,12.0,0.,12.0,0.,12.0,1.,12.0
1979-07-12 21:09:27.460 ,0,1,1.,12.0,0.,12.0,0.,12.0,0.,12.0
1979-07-12 21:10:27.460 ,0,0,0.,12.0,0.,12.0,0.,12.0,0.,12.0
1979-07-12 21:10:39.460 ,0,0,0.,12.0,0.,12.0,0.,12.0,1.,12.0
1979-07-12 21:10:51.460 ,0,1,2.,12.0,0.,12.0,0.,12.0,0.,12.0
1979-07-12 21:11:03.460 ,0,1,0.,12.0,0.,12.0,0.,12.0,0.,12.0
1979-07-12 21:11:15.460 ,3,1,3.,12.0,0.,12.0,0.,12.0,0.,12.0
1979-07-12 21:11:27.460 ,3,1,0.,12.0,0.,12.0,0.,12.0,0.,12.0
1979-07-12 21:11:39.460 ,7,1,0.,12.0,0.,12.0,0.,12.0,0.,12.0
1979-07-12 21:11:51.460 ,7,1,0.,12.0,0.,12.0,0.,12.0,0.,12.0
1979-07-12 21:12:03.460 ,4,1,0.,12.0,0.,12.0,0.,12.0,0.,12.0
1979-07-12 21:12:15.460 ,4,1,0.,12.0,0.,12.0,0.,12.0,2.,12.0
1979-07-12 21:12:27.460 ,0,1,1.,12.0,0.,12.0,0.,12.0,1.,12.0
1979-07-12 21:12:39.460 ,0,1,0.,12.0,0.,12.0,0.,12.0,0.,12.0
1979-07-12 21:12:51.460 ,3,1,0.,12.0,0.,12.0,0.,12.0,0.,12.0
1979-07-12 21:13:03.460 ,3,1,4.,12.0,0.,12.0,0.,12.0,0.,12.0
1979-07-12 21:13:15.460 ,7,1,2.,12.0,0.,12.0,0.,12.0,0.,12.0
1979-07-12 21:13:27.460 ,7,1,1.,12.0,0.,12.0,0.,12.0,0.,12.0
1979-07-12 21:13:39.460 ,4,1,0.,12.0,0.,12.0,0.,12.0,0.,12.0
1979-07-12 21:13:51.460 ,4,1,1.,12.0,0.,12.0,0.,12.0,0.,12.0
1979-07-12 21:14:03.460 ,0,1,0.,12.0,0.,12.0,0.,12.0,0.,12.0
1979-07-12 21:14:15.460 ,0,1,3.,12.0,0.,12.0,0.,12.0,0.,12.0
1979-07-12 21:14:27.460 ,3,1,0.,12.0,0.,12.0,0.,12.0,0.,12.0
1979-07-12 21:14:39.460 ,3,1,1.,12.0,0.,12.0,0.,12.0,0.,12.0
1979-07-12 21:14:51.460 ,7,1,1.,12.0,0.,12.0,0.,12.0,0.,12.0
1979-07-12 21:15:03.460 ,7,1,0.,12.0,0.,12.0,0.,12.0,0.,12.0
1979-07-12 21:15:15.460 ,4,1,0.,12.0,0.,12.0,0.,12.0,0.,12.0
1979-07-12 21:15:27.460 ,4,1,0.,12.0,0.,12.0,0.,12.0,1.,12.0
1979-07-12 21:15:39.460 ,0,1,2.,12.0,0.,12.0,0.,12.0,0.,12.0
1979-07-12 21:15:51.460 ,0,1,0.,12.0,0.,12.0,0.,12.0,1.,12.0
1979-07-12 21:16:03.460 ,3,1,0.,12.0,0.,12.0,0.,12.0,0.,12.0
1979-07-12 21:16:15.460 ,3,1,1.,12.0,0.,12.0,0.,12.0,0.,12.0
1979-07-12 21:16:27.460 ,7,1,3.,12.0,0.,12.0,0.,12.0,0.,12.0
1979-07-12 21:16:39.460 ,7,1,0.,12.0,0.,12.0,0.,12.0,0.,12.0
1979-07-12 21:16:51.460 ,0,0,1.,12.0,0.,12.0,0.,12.0,0.,12.0
1979-07-12 21:17:03.460 ,0,0,4.,12.0,0.,12.0,0.,12.0,0.,12.0
1979-07-12 21:17:15.460 ,0,0,0.,12.0,0.,12.0,0.,12.0,0.,12.0
1979-07-12 21:17:27.460 ,0,0,0.,12.0,0.,12.0,0.,12.0,1.,12.0
1979-07-12 21:17:39.460 ,0,0,0.,12.0,0.,12.0,0.,12.0,0.,12.0
1979-07-12 21:17:51.460 ,0,0,0.,12.0,0.,12.0,0.,12.0,1.,12.0
1979-07-12 21:18:03.460 ,0,0,0.,12.0,0.,12.0,0.,12.0,1.,12.0
1979-07-12 21:18:15.460 ,0,0,1.,12.0,0.,12.0,0.,12.0,0.,12.0
1979-07-12 21:18:27.460 ,5,1,0.,12.0,0.,12.0,0.,12.0,1.,12.0
1979-07-12 21:18:39.460 ,5,1,1.,12.0,0.,12.0,0.,12.0,0.,12.0
1979-07-12 21:18:51.460 ,5,0,1.,12.0,0.,12.0,0.,12.0,0.,12.0
1979-07-12 21:19:03.460 ,5,0,1.,12.0,0.,12.0,0.,12.0,0.,12.0
1979-07-12 21:19:15.460 ,4,1,1.,12.0,0.,12.0,0.,12.0,0.,12.0
1979-07-12 21:19:27.460 ,4,1,1.,12.0,0.,12.0,0.,12.0,0.,12.0
1979-07-12 21:19:39.460 ,4,0,1.,12.0,0.,12.0,0.,12.0,1.,12.0
1979-07-12 21:19:51.460 ,4,0,3.,12.0,0.,12.0,0.,12.0,0.,12.0
1979-07-12 21:20:03.460 ,3,1,0.,12.0,0.,12.0,0.,12.0,1.,12.0
1979-07-12 21:20:15.460 ,3,1,3.,12.0,0.,12.0,0.,12.0,0.,12.0
1979-07-12 21:20:27.460 ,3,0,1.,12.0,0.,12.0,0.,12.0,0.,12.0
1979-07-12 21:20:39.460 ,3,0,0.,12.0,0.,12.0,0.,12.0,0.,12.0
1979-07-12 21:20:51.460 ,2,1,0.,12.0,0.,12.0,0.,12.0,0.,12.0
1979-07-12 21:21:03.460 ,2,1,0.,12.0,0.,12.0,0.,12.0,0.,12.0
1979-07-12 21:21:15.460 ,2,0,2.,12.0,0.,12.0,0.,12.0,1.,12.0
1979-07-12 21:21:27.460 ,2,0,1.,12.0,0.,12.0,0.,12.0,0.,12.0
1979-07-12 21:21:39.460 ,1,1,2.,12.0,0.,12.0,0.,12.0,1.,12.0
1979-07-12 21:21:51.460 ,1,1,0.,12.0,0.,12.0,0.,12.0,1.,12.0
1979-07-12 21:22:03.460 ,1,0,0.,12.0,0.,12.0,0.,12.0,0.,12.0
1979-07-12 21:22:15.460 ,1,0,0.,12.0,0.,12.0,0.,12.0,0.,12.0
1979-07-12 21:22:27.460 ,0,1,1.,12.0,0.,12.0,0.,12.0,0.,12.0
1979-07-12 21:22:39.460 ,0,1,0.,12.0,0.,12.0,0.,12.0,0.,12.0
1979-07-12 21:22:51.460 ,0,0,0.,12.0,0.,12.0,0.,12.0,0.,12.0
1979-07-12 21:23:03.460 ,0,0,0.,12.0,0.,12.0,0.,12.0,0.,12.0
1979-07-12 21:23:15.460 ,0,1,2.,12.0,0.,12.0,0.,12.0,0.,12.0
1979-07-12 21:23:27.460 ,0,1,0.,12.0,0.,12.0,0.,12.0,0.,12.0
1979-07-12 21:23:39.460 ,0,0,0.,12.0,0.,12.0,0.,12.0,0.,12.0
1979-07-12 21:23:51.460 ,0,0,0.,12.0,0.,12.0,0.,12.0,0.,12.0
1979-07-12 21:24:03.460 ,1,1,1.,12.0,0.,12.0,0.,12.0,0.,12.0
1979-07-12 21:24:15.460 ,1,1,0.,12.0,0.,12.0,0.,12.0,0.,12.0
1979-07-12 21:24:27.460 ,1,0,2.,12.0,0.,12.0,0.,12.0,0.,12.0
1979-07-12 21:24:39.460 ,1,0,0.,12.0,0.,12.0,0.,12.0,0.,12.0
1979-07-12 21:24:51.460 ,2,1,0.,12.0,0.,12.0,0.,12.0,0.,12.0
1979-07-12 21:25:03.460 ,2,1,1.,12.0,0.,12.0,0.,12.0,0.,12.0
1979-07-12 21:25:15.460 ,2,0,1.,12.0,0.,12.0,0.,12.0,1.,12.0
1979-07-12 21:25:27.460 ,2,0,4.,12.0,0.,12.0,0.,12.0,2.,12.0
1979-07-12 21:25:39.460 ,3,1,1.,12.0,0.,12.0,0.,12.0,1.,12.0
1979-07-12 21:25:51.460 ,3,1,1.,12.0,0.,12.0,0.,12.0,3.,12.0
1979-07-12 21:26:03.460 ,3,0,2.,12.0,0.,12.0,0.,12.0,1.,12.0
1979-07-12 21:26:15.460 ,3,0,1.,12.0,0.,12.0,0.,12.0,2.,12.0
1979-07-12 21:26:27.460 ,4,1,1.,12.0,0.,12.0,0.,12.0,1.,12.0
1979-07-12 21:26:39.460 ,4,1,0.,12.0,0.,12.0,0.,12.0,0.,12.0
1979-07-12 21:26:51.460 ,4,0,0.,12.0,0.,12.0,0.,12.0,2.,12.0
1979-07-12 21:27:03.460 ,4,0,4.,12.0,0.,12.0,0.,12.0,0.,12.0
1979-07-12 21:27:15.460 ,5,1,2.,12.0,0.,12.0,0.,12.0,1.,12.0
1979-07-12 21:27:27.460 ,5,1,1.,12.0,0.,12.0,0.,12.0,2.,12.0
1979-07-12 21:27:39.460 ,5,0,1.,12.0,0.,12.0,0.,12.0,0.,12.0
1979-07-12 21:27:51.460 ,5,0,2.,12.0,0.,12.0,0.,12.0,3.,12.0
1979-07-12 21:28:03.460 ,6,1,0.,12.0,0.,12.0,0.,12.0,2.,12.0
1979-07-12 21:28:15.460 ,6,1,3.,12.0,0.,12.0,0.,12.0,2.,12.0
1979-07-12 21:28:27.460 ,6,0,1.,12.0,0.,12.0,0.,12.0,1.,12.0
1979-07-12 21:28:39.460 ,6,0,1.,12.0,0.,12.0,0.,12.0,2.,12.0
1979-07-12 21:28:51.460 ,7,1,1.,12.0,0.,12.0,0.,12.0,0.,12.0
1979-07-12 21:29:03.460 ,7,1,0.,12.0,0.,12.0,0.,12.0,0.,12.0
1979-07-12 21:29:15.460 ,7,0,0.,12.0,0.,12.0,0.,12.0,0.,12.0
1979-07-12 21:29:27.460 ,7,0,0.,12.0,0.,12.0,0.,12.0,0.,12.0
1979-07-12 21:29:39.460 ,7,1,0.,12.0,0.,12.0,0.,12.0,0.,12.0
1979-07-12 21:29:51.460 ,7,1,0.,12.0,0.,12.0,0.,12.0,0.,12.0
1979-07-12 21:30:03.460 ,7,0,0.,12.0,0.,12.0,0.,12.0,0.,12.0
1979-07-12 21:30:15.460 ,7,0,0.,12.0,0.,12.0,0.,12.0,0.,12.0
1979-07-12 21:30:27.460 ,6,1,0.,12.0,0.,12.0,0.,12.0,0.,12.0
1979-07-12 21:30:39.460 ,6,1,4.,12.0,0.,12.0,0.,12.0,0.,12.0
1979-07-12 21:30:51.460 ,6,0,4.,12.0,0.,12.0,0.,12.0,2.,12.0
1979-07-12 21:31:03.460 ,6,0,1.,12.0,0.,12.0,0.,12.0,0.,12.0
1979-07-12 21:31:15.460 ,5,1,3.,12.0,0.,12.0,0.,12.0,1.,12.0
1979-07-12 21:31:27.460 ,5,1,3.,12.0,0.,12.0,0.,12.0,2.,12.0
1979-07-12 21:31:39.460 ,5,0,7.,12.0,0.,12.0,0.,12.0,1.,12.0
1979-07-12 21:31:51.460 ,5,0,5.,12.0,0.,12.0,0.,12.0,1.,12.0
1979-07-12 21:32:03.460 ,4,1,5.,12.0,0.,12.0,0.,12.0,2.,12.0
1979-07-12 21:32:15.460 ,4,1,7.,12.0,0.,12.0,0.,12.0,3.,12.0
1979-07-12 21:32:27.460 ,4,0,6.,12.0,0.,12.0,0.,12.0,0.,12.0
1979-07-12 21:32:39.460 ,4,0,5.,12.0,0.,12.0,0.,12.0,3.,12.0
1979-07-12 21:32:51.460 ,3,1,5.,12.0,0.,12.0,0.,12.0,1.,12.0
1979-07-12 21:33:03.460 ,3,1,1.,12.0,0.,12.0,0.,12.0,1.,12.0
1979-07-12 21:33:15.460 ,3,0,3.,12.0,0.,12.0,0.,12.0,0.,12.0
1979-07-12 21:33:27.460 ,3,0,6.,12.0,0.,12.0,0.,12.0,2.,12.0
1979-07-12 21:33:39.460 ,2,1,6.,12.0,0.,12.0,0.,12.0,0.,12.0
1979-07-12 21:33:51.460 ,2,1,7.,12.0,0.,12.0,0.,12.0,1.,12.0
1979-07-12 21:34:03.460 ,2,0,2.,12.0,0.,12.0,0.,12.0,3.,12.0
1979-07-12 21:34:15.460 ,2,0,5.,12.0,0.,12.0,0.,12.0,0.,12.0
1979-07-12 21:34:27.460 ,1,1,5.,12.0,0.,12.0,0.,12.0,2.,12.0
1979-07-12 21:34:39.460 ,1,1,4.,12.0,0.,12.0,0.,12.0,0.,12.0
1979-07-12 21:34:51.460 ,1,0,0.,12.0,0.,12.0,0.,12.0,2.,12.0
1979-07-12 21:35:03.460 ,1,0,2.,12.0,0.,12.0,0.,12.0,0.,12.0
1979-07-12 21:35:15.460 ,0,1,1.,12.0,0.,12.0,0.,12.0,2.,12.0
1979-07-12 21:35:27.460 ,0,1,2.,12.0,0.,12.0,0.,12.0,0.,12.0
1979-07-12 21:35:39.460 ,0,0,2.,12.0,0.,12.0,0.,12.0,0.,12.0
1979-07-12 21:35:51.460 ,0,0,2.,12.0,0.,12.0,0.,12.0,0.,12.0
1979-07-12 21:36:03.460 ,0,1,5.,12.0,0.,12.0,0.,12.0,1.,12.0
1979-07-12 21:36:15.460 ,0,1,0.,12.0,0.,12.0,0.,12.0,1.,12.0
1979-07-12 21:36:27.460 ,0,0,0.,12.0,0.,12.0,0.,12.0,1.,12.0
1979-07-12 21:36:39.460 ,0,0,3.,12.0,0.,12.0,0.,12.0,0.,12.0
1979-07-12 21:36:51.460 ,1,1,3.,12.0,0.,12.0,0.,12.0,0.,12.0
1979-07-12 21:37:03.460 ,1,1,0.,12.0,0.,12.0,0.,12.0,2.,12.0
1979-07-12 21:37:15.460 ,1,0,1.,12.0,0.,12.0,0.,12.0,0.,12.0
1979-07-12 21:37:27.460 ,1,0,2.,12.0,0.,12.0,0.,12.0,1.,12.0
1979-07-12 21:37:39.460 ,2,1,1.,12.0,0.,12.0,0.,12.0,0.,12.0
1979-07-12 21:37:51.460 ,2,1,6.,12.0,0.,12.0,0.,12.0,0.,12.0
1979-07-12 21:38:03.460 ,2,0,3.,12.0,0.,12.0,0.,12.0,0.,12.0
1979-07-12 21:38:15.460 ,2,0,3.,12.0,0.,12.0,0.,12.0,1.,12.0
1979-07-12 21:38:27.460 ,3,1,2.,12.0,0.,12.0,0.,12.0,0.,12.0
1979-07-12 21:38:39.460 ,3,1,3.,12.0,0.,12.0,0.,12.0,2.,12.0
1979-07-12 21:38:51.460 ,3,0,2.,12.0,0.,12.0,0.,12.0,0.,12.0
1979-07-12 21:39:03.460 ,3,0,3.,12.0,0.,12.0,0.,12.0,0.,12.0
1979-07-12 21:39:15.460 ,4,1,3.,12.0,0.,12.0,0.,12.0,1.,12.0
1979-07-12 21:39:27.460 ,4,1,5.,12.0,0.,12.0,0.,12.0,0.,12.0
1979-07-12 21:39:39.460 ,4,0,3.,12.0,0.,12.0,0.,12.0,2.,12.0
1979-07-12 21:39:51.460 ,4,0,8.,12.0,0.,12.0,0.,12.0,1.,12.0
1979-07-12 21:40:03.460 ,5,1,5.,12.0,0.,12.0,0.,12.0,0.,12.0
1979-07-12 21:40:15.460 ,5,1,2.,12.0,0.,12.0,0.,12.0,0.,12.0
1979-07-12 21:40:27.460 ,5,0,6.,12.0,0.,12.0,0.,12.0,3.,12.0
1979-07-12 21:40:39.460 ,5,0,6.,12.0,0.,12.0,0.,12.0,0.,12.0
1979-07-12 21:40:51.460 ,6,1,8.,12.0,0.,12.0,0.,12.0,1.,12.0
1979-07-12 21:41:03.460 ,6,1,4.,12.0,0.,12.0,0.,12.0,0.,12.0
1979-07-12 21:41:15.460 ,6,0,5.,12.0,0.,12.0,0.,12.0,1.,12.0
1979-07-12 21:41:27.460 ,6,0,2.,12.0,0.,12.0,0.,12.0,1.,12.0
1979-07-12 21:41:39.460 ,7,1,3.,12.0,0.,12.0,0.,12.0,0.,12.0
1979-07-12 21:41:51.460 ,7,1,2.,12.0,0.,12.0,0.,12.0,0.,12.0
1979-07-12 21:42:03.460 ,7,0,0.,12.0,0.,12.0,0.,12.0,0.,12.0
1979-07-12 21:42:15.460 ,7,0,0.,12.0,0.,12.0,0.,12.0,0.,12.0
1979-07-12 21:42:27.460 ,7,1,0.,12.0,0.,12.0,0.,12.0,0.,12.0
1979-07-12 21:42:39.460 ,7,1,0.,12.0,0.,12.0,0.,12.0,0.,12.0
1979-07-12 21:42:51.460 ,7,0,0.,12.0,0.,12.0,0.,12.0,0.,12.0
1979-07-12 21:43:03.460 ,7,0,0.,12.0,0.,12.0,0.,12.0,0.,12.0
1979-07-12 21:43:15.460 ,6,1,0.,12.0,0.,12.0,0.,12.0,0.,12.0
1979-07-12 21:43:27.460 ,6,1,3.,12.0,0.,12.0,0.,12.0,1.,12.0
1979-07-12 21:43:39.460 ,6,0,2.,12.0,0.,12.0,0.,12.0,0.,12.0
1979-07-12 21:43:51.460 ,6,0,3.,12.0,0.,12.0,0.,12.0,0.,12.0
1979-07-12 21:44:03.460 ,5,1,1.,12.0,0.,12.0,0.,12.0,2.,12.0
1979-07-12 21:44:15.460 ,5,1,6.,12.0,0.,12.0,0.,12.0,2.,12.0
1979-07-12 21:44:27.460 ,5,0,7.,12.0,0.,12.0,0.,12.0,1.,12.0
1979-07-12 21:44:39.460 ,5,0,3.,12.0,0.,12.0,0.,12.0,0.,12.0
1979-07-12 21:44:51.460 ,4,1,5.,12.0,0.,12.0,0.,12.0,1.,12.0
1979-07-12 21:45:03.460 ,4,1,4.,12.0,0.,12.0,0.,12.0,0.,12.0
1979-07-12 21:45:15.460 ,4,0,7.,12.0,0.,12.0,0.,12.0,3.,12.0
1979-07-12 21:45:27.460 ,4,0,2.,12.0,0.,12.0,0.,12.0,3.,12.0
1979-07-12 21:45:39.460 ,3,1,3.,12.0,0.,12.0,0.,12.0,2.,12.0
1979-07-12 21:45:51.460 ,3,1,4.,12.0,0.,12.0,0.,12.0,0.,12.0
1979-07-12 21:46:03.460 ,3,0,4.,12.0,0.,12.0,0.,12.0,2.,12.0
1979-07-12 21:46:15.460 ,3,0,4.,12.0,0.,12.0,0.,12.0,3.,12.0
1979-07-12 21:46:27.460 ,2,1,7.,12.0,0.,12.0,0.,12.0,1.,12.0
1979-07-12 21:46:39.460 ,2,1,10.,12.0,0.,12.0,0.,12.0,2.,12.0
1979-07-12 21:46:51.460 ,2,0,4.,12.0,0.,12.0,0.,12.0,1.,12.0
1979-07-12 21:47:03.460 ,2,0,3.,12.0,0.,12.0,0.,12.0,3.,12.0
1979-07-12 21:47:15.460 ,1,1,4.,12.0,0.,12.0,0.,12.0,0.,12.0
1979-07-12 21:47:27.460 ,1,1,4.,12.0,0.,12.0,0.,12.0,0.,12.0
1979-07-12 21:47:39.460 ,1,0,0.,12.0,0.,12.0,0.,12.0,0.,12.0
1979-07-12 21:47:51.460 ,1,0,2.,12.0,0.,12.0,0.,12.0,0.,12.0
1979-07-12 21:48:03.460 ,0,1,1.,12.0,0.,12.0,0.,12.0,1.,12.0
1979-07-12 21:48:15.460 ,0,1,1.,12.0,0.,12.0,0.,12.0,0.,12.0
1979-07-12 21:48:27.460 ,0,0,1.,12.0,0.,12.0,0.,12.0,0.,12.0
1979-07-12 21:48:39.460 ,0,0,1.,12.0,0.,12.0,0.,12.0,2.,12.0
1979-07-12 21:48:51.460 ,0,1,1.,12.0,0.,12.0,0.,12.0,0.,12.0
1979-07-12 21:49:03.460 ,0,1,1.,12.0,0.,12.0,0.,12.0,1.,12.0
1979-07-12 21:49:15.460 ,0,0,3.,12.0,0.,12.0,0.,12.0,0.,12.0
1979-07-12 21:49:27.460 ,0,0,1.,12.0,0.,12.0,0.,12.0,0.,12.0
1979-07-12 21:49:39.460 ,1,1,3.,12.0,0.,12.0,0.,12.0,0.,12.0
1979-07-12 21:49:51.460 ,1,1,3.,12.0,0.,12.0,0.,12.0,0.,12.0
1979-07-12 21:50:03.460 ,1,0,5.,12.0,0.,12.0,0.,12.0,0.,12.0
1979-07-12 21:50:15.460 ,1,0,5.,12.0,0.,12.0,0.,12.0,0.,12.0
1979-07-12 21:50:27.460 ,2,1,5.,12.0,0.,12.0,0.,12.0,0.,12.0
1979-07-12 21:50:39.460 ,2,1,4.,12.0,0.,12.0,0.,12.0,0.,12.0
1979-07-12 21:50:51.460 ,2,0,6.,12.0,0.,12.0,0.,12.0,0.,12.0
1979-07-12 21:51:03.460 ,2,0,8.,12.0,0.,12.0,0.,12.0,2.,12.0
1979-07-12 21:51:15.460 ,3,1,4.,12.0,0.,12.0,0.,12.0,2.,12.0
1979-07-12 21:51:27.460 ,3,1,7.,12.0,0.,12.0,0.,12.0,1.,12.0
1979-07-12 21:51:39.460 ,3,0,7.,12.0,0.,12.0,0.,12.0,2.,12.0
1979-07-12 21:51:51.460 ,3,0,3.,12.0,0.,12.0,0.,12.0,1.,12.0
1979-07-12 21:52:03.460 ,4,1,8.,12.0,0.,12.0,0.,12.0,0.,12.0
1979-07-12 21:52:15.460 ,4,1,7.,12.0,0.,12.0,0.,12.0,1.,12.0
1979-07-12 21:52:27.460 ,4,0,6.,12.0,0.,12.0,0.,12.0,1.,12.0
1979-07-12 21:52:39.460 ,4,0,5.,12.0,0.,12.0,0.,12.0,1.,12.0
1979-07-12 21:52:51.460 ,5,1,3.,12.0,0.,12.0,0.,12.0,0.,12.0
1979-07-12 21:53:03.460 ,5,1,7.,12.0,0.,12.0,0.,12.0,2.,12.0
1979-07-12 21:53:15.460 ,5,0,5.,12.0,0.,12.0,0.,12.0,1.,12.0
1979-07-12 21:53:27.460 ,5,0,8.,12.0,1.,12.0,0.,12.0,1.,12.0
1979-07-12 21:53:39.460 ,6,1,3.,12.0,0.,12.0,0.,12.0,0.,12.0
1979-07-12 21:53:51.460 ,6,1,4.,12.0,0.,12.0,0.,12.0,2.,12.0
1979-07-12 21:54:03.460 ,6,0,8.,12.0,0.,12.0,0.,12.0,0.,12.0
1979-07-12 21:54:15.460 ,6,0,1.,12.0,0.,12.0,0.,12.0,0.,12.0
1979-07-12 21:54:27.460 ,7,0,4.,12.0,0.,12.0,0.,12.0,0.,12.0
1979-07-12 21:54:39.460 ,7,0,1.,12.0,0.,12.0,0.,12.0,0.,12.0
1979-07-12 21:54:51.460 ,7,0,0.,12.0,0.,12.0,0.,12.0,0.,12.0
1979-07-12 21:55:03.460 ,7,0,0.,12.0,0.,12.0,0.,12.0,0.,12.0
1979-07-12 21:55:15.460 ,4,1,0.,12.0,0.,12.0,0.,12.0,0.,12.0
1979-07-12 21:55:27.460 ,4,1,5.,12.0,0.,12.0,0.,12.0,1.,12.0
1979-07-12 21:55:39.460 ,0,1,7.,12.0,0.,12.0,0.,12.0,1.,12.0
1979-07-12 21:55:51.460 ,0,1,2.,12.0,0.,12.0,0.,12.0,0.,12.0
1979-07-12 21:56:03.460 ,3,1,3.,12.0,0.,12.0,0.,12.0,1.,12.0
1979-07-12 21:56:15.460 ,3,1,4.,12.0,0.,12.0,0.,12.0,1.,12.0
1979-07-12 21:56:27.460 ,7,1,10.,12.0,0.,12.0,0.,12.0,2.,12.0
1979-07-12 21:56:39.460 ,7,1,0.,12.0,0.,12.0,0.,12.0,1.,12.0
1979-07-12 21:56:51.460 ,4,1,2.,12.0,0.,12.0,0.,12.0,0.,12.0
1979-07-12 21:57:03.460 ,4,1,5.,12.0,0.,12.0,0.,12.0,3.,12.0
1979-07-12 21:57:15.460 ,0,1,4.,12.0,0.,12.0,0.,12.0,2.,12.0
1979-07-12 21:57:27.460 ,0,1,3.,12.0,0.,12.0,0.,12.0,0.,12.0
1979-07-12 21:57:39.460 ,3,1,1.,12.0,0.,12.0,0.,12.0,2.,12.0
1979-07-12 21:57:51.460 ,3,1,1.,12.0,0.,12.0,0.,12.0,2.,12.0
1979-07-12 21:58:03.460 ,7,1,8.,12.0,0.,12.0,0.,12.0,0.,12.0
1979-07-12 21:58:15.460 ,7,1,6.,12.0,0.,12.0,0.,12.0,0.,12.0
1979-07-12 21:58:27.460 ,4,1,0.,12.0,0.,12.0,0.,12.0,1.,12.0
1979-07-12 21:58:39.460 ,4,1,2.,12.0,0.,12.0,0.,12.0,1.,12.0
1979-07-12 21:58:51.460 ,0,1,6.,12.0,0.,12.0,0.,12.0,0.,12.0
1979-07-12 21:59:03.460 ,0,1,3.,12.0,0.,12.0,0.,12.0,0.,12.0
1979-07-12 21:59:15.460 ,3,1,1.,12.0,0.,12.0,0.,12.0,1.,12.0
1979-07-12 21:59:27.460 ,3,1,3.,12.0,0.,12.0,0.,12.0,0.,12.0
1979-07-12 21:59:39.460 ,7,1,4.,12.0,0.,12.0,0.,12.0,1.,12.0
1979-07-12 21:59:51.460 ,7,1,3.,12.0,0.,12.0,0.,12.0,0.,12.0
1979-07-12 22:00:03.460 ,4,1,1.,12.0,0.,12.0,0.,12.0,0.,12.0
1979-07-12 22:00:15.460 ,4,1,0.,12.0,0.,12.0,0.,12.0,2.,12.0
1979-07-12 22:00:27.460 ,0,1,6.,12.0,0.,12.0,0.,12.0,0.,12.0
1979-07-12 22:00:39.460 ,0,1,4.,12.0,0.,12.0,0.,12.0,0.,12.0
1979-07-12 22:00:51.460 ,3,1,3.,12.0,0.,12.0,0.,12.0,0.,12.0
1979-07-12 22:01:03.460 ,3,1,1.,12.0,0.,12.0,0.,12.0,0.,12.0
1979-07-12 22:01:15.460 ,7,1,1.,12.0,0.,12.0,0.,12.0,1.,12.0
1979-07-12 22:01:27.460 ,7,1,1.,12.0,0.,12.0,0.,12.0,0.,12.0
1979-07-12 22:01:39.460 ,4,1,0.,12.0,0.,12.0,0.,12.0,0.,12.0
1979-07-12 22:01:51.460 ,4,1,2.,12.0,0.,12.0,0.,12.0,1.,12.0
1979-07-12 22:02:03.460 ,0,1,2.,12.0,0.,12.0,0.,12.0,0.,12.0
1979-07-12 22:02:15.460 ,0,1,1.,12.0,0.,12.0,0.,12.0,0.,12.0
1979-07-12 22:02:27.460 ,3,1,0.,12.0,0.,12.0,0.,12.0,0.,12.0
1979-07-12 22:02:39.460 ,3,1,2.,12.0,0.,12.0,0.,12.0,0.,12.0
1979-07-12 22:02:51.460 ,7,1,2.,12.0,0.,12.0,0.,12.0,0.,12.0
1979-07-12 22:03:03.460 ,7,1,1.,12.0,0.,12.0,0.,12.0,0.,12.0
1979-07-12 22:03:15.460 ,4,1,0.,12.0,0.,12.0,0.,12.0,0.,12.0
1979-07-12 22:03:27.460 ,4,1,1.,12.0,0.,12.0,0.,12.0,1.,12.0
1979-07-12 22:03:39.460 ,0,1,0.,12.0,0.,12.0,0.,12.0,0.,12.0
1979-07-12 22:03:51.460 ,0,1,2.,12.0,0.,12.0,0.,12.0,0.,12.0
1979-07-12 22:04:03.460 ,3,1,2.,12.0,0.,12.0,0.,12.0,1.,12.0
1979-07-12 22:04:15.460 ,3,1,1.,12.0,0.,12.0,0.,12.0,0.,12.0
1979-07-12 22:04:27.460 ,7,1,2.,12.0,0.,12.0,0.,12.0,0.,12.0
1979-07-12 22:04:39.460 ,7,1,0.,12.0,0.,12.0,0.,12.0,0.,12.0
1979-07-12 22:04:51.460 ,4,1,0.,12.0,0.,12.0,0.,12.0,0.,12.0
1979-07-12 22:05:03.460 ,4,1,2.,12.0,0.,12.0,0.,12.0,3.,12.0
1979-07-12 22:05:15.460 ,0,1,1.,12.0,0.,12.0,0.,12.0,0.,12.0
1979-07-12 22:05:27.460 ,0,1,3.,12.0,0.,12.0,0.,12.0,1.,12.0
1979-07-12 22:05:39.460 ,0,0,0.,12.0,0.,12.0,0.,12.0,0.,12.0
1979-07-12 22:05:51.460 ,0,0,1.,12.0,0.,12.0,0.,12.0,0.,12.0
1979-07-12 22:06:03.460 ,0,0,5.,12.0,0.,12.0,0.,12.0,1.,12.0
1979-07-12 22:06:15.460 ,0,0,1.,12.0,0.,12.0,0.,12.0,1.,12.0
1979-07-12 22:06:27.460 ,5,1,3.,12.0,0.,12.0,0.,12.0,0.,12.0
1979-07-12 22:06:39.460 ,5,1,7.,12.0,0.,12.0,0.,12.0,2.,12.0
1979-07-12 22:06:51.460 ,5,0,6.,12.0,0.,12.0,0.,12.0,2.,12.0
1979-07-12 22:07:03.460 ,5,0,3.,12.0,0.,12.0,0.,12.0,2.,12.0
1979-07-12 22:07:15.460 ,4,1,5.,12.0,0.,12.0,0.,12.0,1.,12.0
1979-07-12 22:07:27.460 ,4,1,8.,12.0,0.,12.0,0.,12.0,3.,12.0
1979-07-12 22:07:39.460 ,4,0,4.,12.0,0.,12.0,0.,12.0,0.,12.0
1979-07-12 22:07:51.460 ,4,0,5.,12.0,0.,12.0,0.,12.0,1.,12.0
1979-07-12 22:08:03.460 ,3,1,9.,12.0,0.,12.0,0.,12.0,4.,12.0
1979-07-12 22:08:15.460 ,3,1,2.,12.0,0.,12.0,0.,12.0,0.,12.0
1979-07-12 22:08:27.460 ,3,0,4.,12.0,0.,12.0,0.,12.0,1.,12.0
1979-07-12 22:08:39.460 ,3,0,5.,12.0,0.,12.0,0.,12.0,0.,12.0
1979-07-12 22:08:51.460 ,2,1,3.,12.0,0.,12.0,0.,12.0,1.,12.0
1979-07-12 22:09:03.460 ,2,1,2.,12.0,0.,12.0,0.,12.0,1.,12.0
1979-07-12 22:09:15.460 ,2,0,0.,12.0,0.,12.0,0.,12.0,0.,12.0
1979-07-12 22:09:27.460 ,2,0,3.,12.0,0.,12.0,0.,12.0,2.,12.0
1979-07-12 22:09:39.460 ,1,1,1.,12.0,0.,12.0,0.,12.0,1.,12.0
1979-07-12 22:09:51.460 ,1,1,3.,12.0,0.,12.0,0.,12.0,1.,12.0
1979-07-12 22:10:03.460 ,1,0,4.,12.0,0.,12.0,0.,12.0,0.,12.0
1979-07-12 22:10:15.460 ,1,0,1.,12.0,0.,12.0,0.,12.0,0.,12.0
1979-07-12 22:10:27.460 ,0,1,4.,12.0,0.,12.0,0.,12.0,0.,12.0
1979-07-12 22:10:39.460 ,0,1,1.,12.0,0.,12.0,0.,12.0,0.,12.0
1979-07-12 22:10:51.460 ,0,0,0.,12.0,0.,12.0,0.,12.0,1.,12.0
1979-07-12 22:11:03.460 ,0,0,0.,12.0,0.,12.0,0.,12.0,0.,12.0
1979-07-12 22:11:15.460 ,0,1,2.,12.0,0.,12.0,0.,12.0,0.,12.0
1979-07-12 22:11:27.460 ,0,1,2.,12.0,0.,12.0,0.,12.0,0.,12.0
1979-07-12 22:11:39.460 ,0,0,0.,12.0,0.,12.0,0.,12.0,0.,12.0
1979-07-12 22:11:51.460 ,0,0,0.,12.0,0.,12.0,0.,12.0,0.,12.0
1979-07-12 22:12:03.460 ,1,1,2.,12.0,0.,12.0,0.,12.0,1.,12.0
1979-07-12 22:12:15.460 ,1,1,1.,12.0,0.,12.0,0.,12.0,1.,12.0
1979-07-12 22:12:27.460 ,1,0,2.,12.0,0.,12.0,0.,12.0,0.,12.0
1979-07-12 22:12:39.460 ,1,0,3.,12.0,0.,12.0,0.,12.0,0.,12.0
1979-07-12 22:12:51.460 ,2,1,0.,12.0,0.,12.0,0.,12.0,0.,12.0
1979-07-12 22:13:03.460 ,2,1,3.,12.0,0.,12.0,0.,12.0,1.,12.0
1979-07-12 22:13:15.460 ,2,0,2.,12.0,0.,12.0,0.,12.0,0.,12.0
1979-07-12 22:13:27.460 ,2,0,3.,12.0,0.,12.0,0.,12.0,0.,12.0
1979-07-12 22:13:39.460 ,3,1,0.,12.0,0.,12.0,0.,12.0,0.,12.0
1979-07-12 22:13:51.460 ,3,1,2.,12.0,0.,12.0,0.,12.0,3.,12.0
1979-07-12 22:14:03.460 ,3,0,0.,12.0,0.,12.0,0.,12.0,0.,12.0
1979-07-12 22:14:15.460 ,3,0,3.,12.0,0.,12.0,0.,12.0,0.,12.0
1979-07-12 22:14:27.460 ,4,1,0.,12.0,0.,12.0,0.,12.0,2.,12.0
1979-07-12 22:14:39.460 ,4,1,0.,12.0,0.,12.0,0.,12.0,0.,12.0
1979-07-12 22:14:51.460 ,4,0,3.,12.0,0.,12.0,0.,12.0,0.,12.0
1979-07-12 22:15:03.460 ,4,0,3.,12.0,0.,12.0,0.,12.0,0.,12.0
1979-07-12 22:15:15.460 ,5,1,2.,12.0,0.,12.0,0.,12.0,1.,12.0
1979-07-12 22:15:27.460 ,5,1,3.,12.0,0.,12.0,0.,12.0,1.,12.0
1979-07-12 22:15:39.460 ,5,0,1.,12.0,0.,12.0,0.,12.0,1.,12.0
1979-07-12 22:15:51.460 ,5,0,4.,12.0,0.,12.0,0.,12.0,0.,12.0
1979-07-12 22:16:03.460 ,6,1,4.,12.0,0.,12.0,0.,12.0,0.,12.0
1979-07-12 22:16:15.460 ,6,1,2.,12.0,0.,12.0,0.,12.0,0.,12.0
1979-07-12 22:16:27.460 ,6,0,0.,12.0,0.,12.0,0.,12.0,0.,12.0
1979-07-12 22:16:39.460 ,6,0,0.,12.0,0.,12.0,0.,12.0,1.,12.0
1979-07-12 22:16:51.460 ,7,1,0.,12.0,0.,12.0,0.,12.0,0.,12.0
1979-07-12 22:17:03.460 ,7,1,0.,12.0,0.,12.0,0.,12.0,0.,12.0
1979-07-12 22:17:15.460 ,7,0,0.,12.0,0.,12.0,0.,12.0,0.,12.0
1979-07-12 22:17:27.460 ,7,0,0.,12.0,0.,12.0,0.,12.0,0.,12.0
1979-07-12 22:17:39.460 ,7,1,0.,12.0,0.,12.0,0.,12.0,0.,12.0
1979-07-12 22:17:51.460 ,7,1,0.,12.0,0.,12.0,0.,12.0,0.,12.0
1979-07-12 22:18:03.460 ,7,0,0.,12.0,0.,12.0,0.,12.0,0.,12.0
1979-07-12 22:18:15.460 ,7,0,0.,12.0,0.,12.0,0.,12.0,0.,12.0